Location: Lalanga
(4.5882°N, 32.9072°E)
Time: 13:13:47
(UTC+00:00)

Star 63D - Pass Details

Date: 24 January 2020
Orbit: 341 x 32538 km, 21.8° (Epoch: 22 February)

Event Time Altitude Azimuth Distance (km) Brightness Sun altitude
Rises 17:01:48 0° 252° (WSW) 3,883 10.0 -16.0°
Reaches altitude 10° 17:05:31 10° 256° (WSW) 1,907 7.9 -16.9°
Maximum altitude 17:08:46 54° 335° (NNW) 443 3.3 -17.6°
Enters shadow 17:09:01 50° 6° (N) 456 3.2 -17.7°
